CW2647 Weather Reports


time (UTC)temp
C
wind
direction
speed
KPH
gust
KPH
rain 1hr
cm
rain 24hr
cm
rain mn
cm
humidity
%
barometer
mb
20260906124503 23 360 0.0 0.0 0.00 0.00 0.00 92 1011.3
20260906123000 22 360 0.0 1.6 0.00 0.00 0.00 92 1011.3
20260906121608 22 360 0.0 3.2 0.00 0.00 0.00 92 1011.1
20260906120106 22 360 0.0 1.6 0.00 0.00 0.00 91 1010.9
20260906114554 22 360 0.0 1.6 0.00 0.00 0.00 91 1010.7
20260906113055 22 360 0.0 0.0 0.00 0.00 0.00 91 1010.5
20260906111550 22 360 0.0 1.6 0.00 0.00 0.00 91 1010.4
20260906110050 22 360 0.0 0.0 0.00 0.00 0.00 90 1010.3
20260906104550 22 360 0.0 0.0 0.00 0.00 0.00 91 1010.3
20260906103055 22 360 0.0 0.0 0.00 0.00 0.00 91 1010.1
20260906101548 22 360 0.0 0.0 0.00 0.00 0.00 90 1010.1
20260906100048 22 360 0.0 0.0 0.00 0.00 0.00 90 1010.2
20260906094548 22 360 0.0 0.0 0.00 0.00 0.00 90 1010.1
20260906093053 22 360 0.0 0.0 0.00 0.00 0.00 90 1010.2
20260906091547 22 360 0.0 0.0 0.00 0.00 0.00 89 1010.1
20260906090045 22 360 0.0 0.0 0.00 0.00 0.00 89 1010.0
20260906084545 22 360 0.0 0.0 0.00 0.00 0.00 89 1009.9
20260906083043 22 360 0.0 0.0 0.00 0.00 0.00 89 1009.9
20260906081542 22 360 0.0 0.0 0.00 0.00 0.00 88 1010.0
20260906080040 22 360 0.0 0.0 0.00 0.00 0.00 89 1009.6
20260906074539 22 360 0.0 0.0 0.00 0.00 0.00 88 1009.4
20260906073037 23 360 0.0 0.0 0.00 0.00 0.00 88 1009.5
20260906071538 23 360 0.0 0.0 0.00 0.00 0.00 88 1009.5
20260906070035 23 360 0.0 1.6 0.00 0.00 0.00 88 1009.6
20260906064537 23 360 0.0 1.6 0.00 0.00 0.00 88 1009.8
20260906063031 23 360 0.0 0.0 0.00 0.00 0.00 88 1009.9
20260906061530 23 360 0.0 3.2 0.00 0.00 0.00 88 1010.0
20260906060026 23 360 0.0 3.2 0.00 0.00 0.00 88 1010.4
20260906054534 24 360 0.0 3.2 0.00 0.00 0.00 88 1010.3
20260906053024 24 360 0.0 4.8 0.00 0.00 0.00 88 1010.7
20260906051524 24 360 0.0 0.0 0.00 0.00 0.00 88 1010.6
20260906050023 24 360 0.0 4.8 0.00 0.00 0.00 88 1010.9
20260906044521 25 360 1.6 6.4 0.00 0.00 0.00 88 1011.0
20260906043023 25 12 0.0 3.2 0.00 0.00 0.00 88 1010.5
20260906041519 25 12 0.0 1.6 0.00 0.00 0.00 88 1010.4
20260906040015 25 12 0.0 0.0 0.00 0.00 0.00 87 1010.2
20260906034514 25 360 0.0 0.0 0.00 0.00 0.00 87 1009.9
20260906033013 25 360 0.0 3.2 0.00 0.00 0.00 87 1010.0
20260906031512 25 360 0.0 3.2 0.00 0.00 0.00 86 1010.3
20260906030012 26 360 1.6 3.2 0.00 0.00 0.00 86 1010.4
20260906024512 26 360 0.0 0.0 0.00 0.00 0.00 85 1009.9
20260906023011 26 360 0.0 1.6 0.00 0.00 0.00 85 1010.2
20260906021520 26 360 0.0 1.6 0.00 0.00 0.00 85 1010.5
20260906020017 26 360 0.0 1.6 0.00 0.00 0.00 85 1011.0
20260906014515 26 360 4.8 16.1 0.00 0.00 0.00 85 1011.3
20260906013017 26 9 3.2 8.0 0.00 0.00 0.00 84 1011.3
20260906011508 26 360 0.0 0.0 0.00 0.00 0.00 82 1010.4
20260906010013 26 360 0.0 0.0 0.00 0.00 0.00 81 1009.7
20260906004508 26 360 0.0 0.0 0.00 0.00 0.00 80 1009.7
20260906003015 27 360 0.0 0.0 0.00 0.00 0.00 79 1009.8
20260906001511 27 360 0.0 0.0 0.00 0.00 0.00 79 1009.4
20260906000006 27 360 0.0 0.0 0.00 0.00 0.00 78 1009.2
20260905234505 27 360 0.0 0.0 0.00 0.00 0.00 78 1009.1
20260905233003 27 360 0.0 0.0 0.00 0.00 0.00 78 1009.3
20260905231503 27 360 0.0 0.0 0.00 0.00 0.00 78 1009.4
20260905230004 27 360 0.0 0.0 0.00 0.00 0.00 77 1009.4
20260905224505 27 360 0.0 0.0 0.00 0.00 0.00 75 1009.4
20260905223101 27 360 0.0 1.6 0.00 0.00 0.00 73 1009.3
20260905221603 27 360 0.0 1.6 0.00 0.00 0.00 74 1009.4
20260905220059 27 360 0.0 0.0 0.00 0.00 0.00 74 1009.5
20260905214558 27 360 0.0 1.6 0.00 0.00 0.00 74 1009.6
20260905213100 27 360 1.6 6.4 0.00 0.00 0.00 75 1009.8
20260905211608 26 360 0.0 3.2 0.00 0.00 0.00 77 1009.7
20260905210110 26 360 0.0 3.2 0.00 0.00 0.00 77 1009.8
20260905204558 26 360 0.0 4.8 0.00 0.00 0.00 77 1009.6
20260905203055 27 360 0.0 3.2 0.00 0.00 0.00 75 1009.4
20260905201554 27 360 0.0 3.2 0.00 0.00 0.00 74 1009.5
20260905200056 27 360 0.0 4.8 0.00 0.00 0.00 73 1009.9
20260905194549 28 360 0.0 3.2 0.00 0.00 0.00 72 1010.3
20260905193050 28 360 1.6 9.7 0.00 0.00 0.00 70 1010.5
20260905191548 30 360 1.6 9.7 0.00 0.00 0.00 69 1011.0
20260905190055 31 360 6.4 14.5 0.00 0.00 0.00 68 1011.2
20260905184547 32 360 0.0 6.4 0.00 0.00 0.00 68 1010.9
20260905183054 32 360 3.2 8.0 0.00 0.00 0.00 68 1010.4
20260905181547 33 360 0.0 8.0 0.00 0.00 0.00 67 1010.9
20260905180044 33 360 0.0 8.0 0.00 0.00 0.00 64 1010.9
20260905174541 32 360 0.0 9.7 0.00 0.00 0.00 68 1011.2
20260905173037 33 34 4.8 8.0 0.00 0.00 0.00 67 1011.3
20260905171545 33 360 1.6 12.9 0.00 0.00 0.00 68 1011.6
20260905170029 32 360 0.0 8.0 0.00 0.00 0.00 71 1011.9
20260905164527 32 360 1.6 8.0 0.00 0.00 0.00 69 1012.0
20260905163023 32 360 3.2 8.0 0.00 0.00 0.00 71 1012.3
20260905161519 32 360 3.2 6.4 0.00 0.00 0.00 73 1012.4
20260905160020 31 360 3.2 6.4 0.00 0.00 0.00 72 1012.4
20260905154513 31 360 1.6 8.0 0.00 0.00 0.00 76 1012.4
20260905153006 30 360 0.0 8.0 0.00 0.00 0.00 77 1012.5
20260905151508 30 360 0.0 6.4 0.00 0.00 0.00 79 1012.7
20260905150003 29 360 3.2 6.4 0.00 0.00 0.00 79 1012.8
20260905144602 29 360 0.0 4.8 0.00 0.00 0.00 79 1012.9
20260905143056 28 360 0.0 3.2 0.00 0.00 0.00 85 1013.0
20260905141601 26 360 1.6 4.8 0.00 0.00 0.00 90 1013.1
20260905140055 26 360 0.0 4.8 0.00 0.00 0.00 91 1013.1
20260905134550 26 360 0.0 3.2 0.00 0.00 0.00 93 1013.1
20260905133047 25 360 0.0 4.8 0.00 0.00 0.00 93 1013.2
20260905131554 25 360 0.0 4.8 0.00 0.00 0.00 94 1013.1
20260905130044 24 360 0.0 0.0 0.00 0.00 0.00 93 1013.3